Location: Brno
(49.2000°N, 16.6330°E)
Time: 01:52:28
(UTC+01:00)

ISS - Visible Passes

Search period start: 23 November 2014 00:00
Search period end: 03 December 2014 00:00
Orbit: 408 x 417 km, 51.6° (Epoch: 22 November)

Date Brightness Start Highest point End Pass type
(mag) Time Alt. Az. Time Alt. Az. Time Alt. Az.
23 Nov -3.3 05:08:20 74° NNE 05:08:20 74° NNE 05:11:34 10° ESE visible
24 Nov -0.5 04:20:42 19° E 04:20:42 19° E 04:21:48 10° E visible
24 Nov -2.7 05:53:32 24° W 05:55:08 45° SSW 05:58:18 10° SE visible
25 Nov -2.9 05:05:53 57° SSE 05:05:53 57° SSE 05:08:43 10° ESE visible
25 Nov -1.1 06:39:40 10° WSW 06:41:36 15° SW 06:43:31 10° S visible
26 Nov -0.3 04:18:14 15° ESE 04:18:14 15° ESE 04:18:56 10° ESE visible
26 Nov -1.7 05:51:03 20° WSW 05:51:59 23° SW 05:54:38 10° SSE visible
27 Nov -1.6 05:03:25 26° S 05:03:25 26° S 05:05:17 10° SSE visible
28 Nov -0.8 05:48:37 11° SW 05:48:37 11° SW 05:49:17 10° SSW visible
